Location: Campillo
(40.8621°N, 4.2488°W)
Time: 13:42:43
(UTC+00:00)

Cosmos 1743 - Visible Passes

Search period start: 28 September 2021 00:00
Search period end: 08 October 2021 00:00
Orbit: 510 x 524 km, 82.5° (Epoch: 27 September)

Date Brightness Start Highest point End Pass type
(mag) Time Alt. Az. Time Alt. Az. Time Alt. Az.
28 Sep 5.8 03:28:41 10° NE 03:30:52 14° ENE 03:33:02 10° ESE visible
28 Sep 3.2 05:03:11 10° NNW 05:06:46 36° W 05:10:18 10° SSW visible
29 Sep 6.0 03:14:41 10° NE 03:16:16 12° ENE 03:17:51 10° E visible
29 Sep 3.0 04:48:34 10° NNW 04:52:16 44° W 04:55:56 10° SSW visible
30 Sep 6.1 03:01:26 10° ENE 03:01:40 10° ENE 03:01:54 10° ENE visible
30 Sep 2.7 04:33:59 10° NNW 04:37:47 54° W 04:40:07 21° SSW visible
30 Sep 6.5 18:27:34 10° WNW 18:28:10 10° WNW 18:28:46 10° WNW visible
01 Oct 4.0 04:19:24 10° NNW 04:21:24 29° NNW 04:21:24 29° NNW visible
02 Oct 5.3 04:04:51 10° N 04:05:06 12° N 04:05:06 12° N visible
